map of VCE home
VCE - Airport
Location
City:  Venice, Veneto, Italy
Near (Alt.):Venezia
Name:Marco Polo Airport
Old (Alt.):Tessera
ICAO:LIPZ
IATA:VCE

Details
Type:Airport (Aerodrome, Airfield)
Use:Public/Civil, International (customs port of entry)
Latitude:4530'19"N (45.505278)
Longitude:1221'07"E (12.351944)
Datum:WGS 1984
Elevation:7 ft (2 m)
Variation:3.30E (WMM2015 magnetic declination)
0.11 annual change
Runways:2
Longest:10827 × 148 ft (3300 × 45 m), paved

Time
Time Zone:UTC+1 (DST+2)
Local Time:

Weather
METAR:LIPZ 180520Z VRB02KT 3000 BR SCT006 BKN020 06/06 Q1008 NOSIG
TAF:LIPZ 180500Z 1806/1912 VRB06KT 9999 BKN050
TEMPO 1806/1808 2000 RA BR BKN006
BECMG 1806/1808 04015KT
BECMG 1810/1812 08018G28KT
BECMG 1816/1819 04013KT

Related Locations
Nearby:
Farthest:CHT: 11990 mi / 19296 km
Waitangi [Tuuta], CIT, NZ

Find:

   beyond  
but within

Other Information
Maps:
NOTAMs:
Links:
Sources:

  
  • flag of Italy
  • flag of Veneto
  • flag of Venice
  

Sectional Chart

Flight Planning
at skyvector.com

Satellite Image

Google Maps Satellite view

 

Copyright © 2004-2019 Karl L. Swartz. All rights reserved.
The Great Circle Mapper name and logo are trademarks of the Great Circle Mapper.
All other trademarks mentioned herein belong to their respective owners.
Please see credits for attibutions and further copyright information.

  Follow gcmap on Facebook Follow gcmap on Twitter Follow gcmap on Google+ GCmap on LinkedIn

hCard Microformat

Geo Microformat